Location: Hilton Head Island
(32.2163°N, 80.7526°W)
Time: 07:55:45
(UTC-04:00)

Vanguard 1 - Pass Details

Date: 19 February 2026
Orbit: 653 x 3818 km, 34.2° (Epoch: 17 March)

Event Time Altitude Azimuth Distance (km) Brightness Sun altitude
Rises 12:39:37 0° 201° (SSW) 3,522 13.6 46.7°
Reaches altitude 10° 12:42:13 10° 187° (S) 2,850 13.4 46.7°
Maximum altitude 12:47:51 26° 133° (SE) 2,505 12.9 46.6°
Drops below altitude 10° 12:56:30 10° 83° (E) 4,531 13.5 46.4°
Sets 13:02:00 0° 73° (ENE) 6,144 14.0 46.3°
